Starlink 4080

operational
NORAD ID: 52835 Int'l Des: 2022-062 Owner: SPXS Country: US Constellation: starlink
LEOCIRCULAR

Über Starlink 4080

Beschreibung wird geladen...

Live-Position

3D-Globus wird geladen...

Nächste Überflüge

Höhenverlauf

Altitude vs Time

uPlot chart will show altitude changes over time

Zweizeiliger Elementsatz

1 52835U 22062F 25258.28751917 .00001176 00000-0 91962-4 0 9993
2 52835 53.2166 101.5330 0001332 86.8615 273.2530 15.08839813179302
Epoch: 15. Sept. 2025 • Age: 16 hours

Aktueller Status

Höhe 541.9 km
Geschwindigkeit 7.60 km/s
Subsatellitenpunkt 36.32°N, 100.6°W
Startdatum 17. Juni 2022
Alter 3.2 years
Typ internet

Technische Details

Klassifizierung Payload
Masse 297.00 kg
Trockenmasse 275.00 kg
Gesamtmasse 297.00 kg
Länge 0.20 m
Durchmesser 2.80 m
Spannweite 9.00 m
Form Box + pan
Hersteller SPXS
Bus-Typ Starlink
Phasenstatus In Orbit
Besitzer/Staat SPXS/US

Große Konstellationen

Loading constellations...